Year,Month,Day,Hour,Minute,Value (Times are PST for temperature in C)
2013,09,12,00,00,19.70
2013,09,12,00,01,19.60
2013,09,12,00,02,19.70
2013,09,12,00,03,19.70
2013,09,12,00,04,19.70
2013,09,12,00,05,19.70
2013,09,12,00,06,19.70
2013,09,12,00,07,19.70
2013,09,12,00,08,19.70
2013,09,12,00,09,19.70
2013,09,12,00,10,19.70
2013,09,12,00,11,19.70
2013,09,12,00,12,19.60
2013,09,12,00,13,19.60
2013,09,12,00,14,19.60
2013,09,12,00,15,19.60
2013,09,12,00,16,19.60
2013,09,12,00,17,19.60
2013,09,12,00,18,19.60
2013,09,12,00,19,19.60
2013,09,12,00,20,19.50
2013,09,12,00,21,19.50
2013,09,12,00,22,19.50
2013,09,12,00,23,19.50
2013,09,12,00,24,19.40
2013,09,12,00,25,19.40
2013,09,12,00,26,19.40
2013,09,12,00,27,19.40
2013,09,12,00,28,19.40
2013,09,12,00,29,19.40
2013,09,12,00,30,19.40
2013,09,12,00,31,19.40
2013,09,12,00,32,19.40
2013,09,12,00,33,19.40
2013,09,12,00,34,19.40
2013,09,12,00,35,19.40
2013,09,12,00,36,19.40
2013,09,12,00,37,19.40
2013,09,12,00,38,19.40
2013,09,12,00,39,19.30
2013,09,12,00,40,19.30
2013,09,12,00,41,19.20
2013,09,12,00,42,19.20
2013,09,12,00,43,19.10
2013,09,12,00,44,19.10
2013,09,12,00,45,19.10
2013,09,12,00,46,19.00
2013,09,12,00,47,19.00
2013,09,12,00,48,18.90
2013,09,12,00,49,18.90
2013,09,12,00,50,18.80
2013,09,12,00,51,18.80
2013,09,12,00,52,18.80
2013,09,12,00,53,18.70
2013,09,12,00,54,18.70
2013,09,12,00,55,18.70
2013,09,12,00,56,18.60
2013,09,12,00,57,18.60
2013,09,12,00,58,18.60
2013,09,12,00,59,18.50
2013,09,12,01,00,18.50
2013,09,12,01,01,18.50
2013,09,12,01,02,18.50
2013,09,12,01,03,18.40
2013,09,12,01,04,18.40
2013,09,12,01,05,18.40
2013,09,12,01,06,18.30
2013,09,12,01,07,18.30
2013,09,12,01,08,18.30
2013,09,12,01,09,18.30
2013,09,12,01,10,18.30
2013,09,12,01,11,18.20
2013,09,12,01,12,18.20
2013,09,12,01,13,18.20
2013,09,12,01,14,18.20
2013,09,12,01,15,18.20
2013,09,12,01,16,18.20
2013,09,12,01,17,18.20
2013,09,12,01,18,18.20
2013,09,12,01,19,18.10
2013,09,12,01,20,18.10
2013,09,12,01,21,18.10
2013,09,12,01,22,18.10
2013,09,12,01,23,18.10
2013,09,12,01,24,18.10
2013,09,12,01,25,18.10
2013,09,12,01,26,18.00
2013,09,12,01,27,18.00
2013,09,12,01,28,18.00
2013,09,12,01,29,18.00
2013,09,12,01,30,17.90
2013,09,12,01,31,17.90
2013,09,12,01,32,17.90
2013,09,12,01,33,17.90
2013,09,12,01,34,17.90
2013,09,12,01,35,17.90
2013,09,12,01,36,17.70
2013,09,12,01,37,17.70
2013,09,12,01,38,17.60
2013,09,12,01,39,17.60
2013,09,12,01,40,17.60
2013,09,12,01,41,17.50
2013,09,12,01,42,17.50
2013,09,12,01,43,17.40
2013,09,12,01,44,17.40
2013,09,12,01,45,17.30
2013,09,12,01,46,17.30
2013,09,12,01,47,17.30
2013,09,12,01,48,17.20
2013,09,12,01,49,17.10
2013,09,12,01,50,17.10
2013,09,12,01,51,17.10
2013,09,12,01,52,17.00
2013,09,12,01,53,16.90
2013,09,12,01,54,16.90
2013,09,12,01,55,16.90
2013,09,12,01,56,16.80
2013,09,12,01,57,16.80
2013,09,12,01,58,16.80
2013,09,12,01,59,16.80
2013,09,12,02,00,16.80
2013,09,12,02,01,16.80
2013,09,12,02,02,16.80
2013,09,12,02,03,16.80
2013,09,12,02,04,16.80
2013,09,12,02,05,16.80
2013,09,12,02,06,16.80
2013,09,12,02,07,16.70
2013,09,12,02,08,16.70
2013,09,12,02,09,16.70
2013,09,12,02,10,16.70
2013,09,12,02,11,16.70
2013,09,12,02,12,16.70
2013,09,12,02,13,16.70
2013,09,12,02,14,16.70
2013,09,12,02,15,16.70
2013,09,12,02,16,16.70
2013,09,12,02,17,16.60
2013,09,12,02,18,16.60
2013,09,12,02,19,16.60
2013,09,12,02,20,16.60
2013,09,12,02,21,16.60
2013,09,12,02,22,16.60
2013,09,12,02,23,16.60
2013,09,12,02,24,16.60
2013,09,12,02,25,16.60
2013,09,12,02,26,16.60
2013,09,12,02,27,16.60
2013,09,12,02,28,16.60
2013,09,12,02,29,16.60
2013,09,12,02,30,16.60
2013,09,12,02,31,16.60
2013,09,12,02,32,16.60
2013,09,12,02,33,16.60
2013,09,12,02,34,16.60
2013,09,12,02,35,16.60
2013,09,12,02,36,16.60
2013,09,12,02,37,16.60
2013,09,12,02,38,16.60
2013,09,12,02,39,16.50
2013,09,12,02,40,16.50
2013,09,12,02,41,16.50
2013,09,12,02,42,16.50
2013,09,12,02,43,16.50
2013,09,12,02,44,16.50
2013,09,12,02,45,16.50
2013,09,12,02,46,16.50
2013,09,12,02,47,16.40
2013,09,12,02,48,16.50
2013,09,12,02,49,16.40
2013,09,12,02,50,16.40
2013,09,12,02,51,16.50
2013,09,12,02,52,16.50
2013,09,12,02,53,16.50
2013,09,12,02,54,16.50
2013,09,12,02,55,16.60
2013,09,12,02,56,16.60
2013,09,12,02,57,16.60
2013,09,12,02,58,16.60
2013,09,12,02,59,16.60
2013,09,12,03,00,16.60
2013,09,12,03,01,16.60
2013,09,12,03,02,16.60
2013,09,12,03,03,16.60
2013,09,12,03,04,16.60
2013,09,12,03,05,16.60
2013,09,12,03,06,16.60
2013,09,12,03,07,16.70
2013,09,12,03,08,16.70
2013,09,12,03,09,16.70
2013,09,12,03,10,16.80
2013,09,12,03,11,16.80
2013,09,12,03,12,16.90
2013,09,12,03,13,16.90
2013,09,12,03,14,16.90
2013,09,12,03,15,17.00
2013,09,12,03,16,17.00
2013,09,12,03,17,17.10
2013,09,12,03,18,17.10
2013,09,12,03,19,17.10
2013,09,12,03,20,17.10
2013,09,12,03,21,17.20
2013,09,12,03,22,17.20
2013,09,12,03,23,17.20
2013,09,12,03,24,17.20
2013,09,12,03,25,17.20
2013,09,12,03,26,17.20
2013,09,12,03,27,17.20
2013,09,12,03,28,17.20
2013,09,12,03,29,17.20
2013,09,12,03,30,17.20
2013,09,12,03,31,17.10
2013,09,12,03,32,17.10
2013,09,12,03,33,17.10
2013,09,12,03,34,17.10
2013,09,12,03,35,17.10
2013,09,12,03,36,17.00
2013,09,12,03,37,17.00
2013,09,12,03,38,17.00
2013,09,12,03,39,17.00
2013,09,12,03,40,17.00
2013,09,12,03,41,17.00
2013,09,12,03,42,16.90
2013,09,12,03,43,16.90
2013,09,12,03,44,16.90
2013,09,12,03,45,16.90
2013,09,12,03,46,16.90
2013,09,12,03,47,16.90
2013,09,12,03,48,16.80
2013,09,12,03,49,16.80
2013,09,12,03,50,16.80
2013,09,12,03,51,16.80
2013,09,12,03,52,16.70
2013,09,12,03,53,16.70
2013,09,12,03,54,16.70
2013,09,12,03,55,16.70
2013,09,12,03,56,16.60
2013,09,12,03,57,16.60
2013,09,12,03,58,16.60
2013,09,12,03,59,16.50
2013,09,12,04,00,16.50
2013,09,12,04,01,16.50
2013,09,12,04,02,16.40
2013,09,12,04,03,16.40
2013,09,12,04,04,16.40
2013,09,12,04,05,16.40
2013,09,12,04,06,16.40
2013,09,12,04,07,16.40
2013,09,12,04,08,16.40
2013,09,12,04,09,16.40
2013,09,12,04,10,16.40
2013,09,12,04,11,16.40
2013,09,12,04,12,16.40
2013,09,12,04,13,16.40
2013,09,12,04,14,16.30
2013,09,12,04,15,16.30
2013,09,12,04,16,16.30
2013,09,12,04,17,16.30
2013,09,12,04,18,16.30
2013,09,12,04,19,16.30
2013,09,12,04,20,16.30
2013,09,12,04,21,16.30
2013,09,12,04,22,16.30
2013,09,12,04,23,16.30
2013,09,12,04,24,16.30
2013,09,12,04,25,16.30
2013,09,12,04,26,16.30
2013,09,12,04,27,16.20
2013,09,12,04,28,16.20
2013,09,12,04,29,16.20
2013,09,12,04,30,16.20
2013,09,12,04,31,16.20
2013,09,12,04,32,16.20
2013,09,12,04,33,16.20
2013,09,12,04,34,16.20
2013,09,12,04,35,16.10
2013,09,12,04,36,16.10
2013,09,12,04,37,16.10
2013,09,12,04,38,16.10
2013,09,12,04,39,16.10
2013,09,12,04,40,16.10
2013,09,12,04,41,16.10
2013,09,12,04,42,16.10
2013,09,12,04,43,16.00
2013,09,12,04,44,16.00
2013,09,12,04,45,16.00
2013,09,12,04,46,15.90
2013,09,12,04,47,15.90
2013,09,12,04,48,15.80
2013,09,12,04,49,15.80
2013,09,12,04,50,15.80
2013,09,12,04,51,15.70
2013,09,12,04,52,15.70
2013,09,12,04,53,15.70
2013,09,12,04,54,15.70
2013,09,12,04,55,15.70
2013,09,12,04,56,15.70
2013,09,12,04,57,15.70
2013,09,12,04,58,15.70
2013,09,12,04,59,15.70
2013,09,12,05,00,15.70
2013,09,12,05,01,15.70
2013,09,12,05,02,15.70
2013,09,12,05,03,15.70
2013,09,12,05,04,15.80
2013,09,12,05,05,15.80
2013,09,12,05,06,15.80
2013,09,12,05,07,15.80
2013,09,12,05,08,15.80
2013,09,12,05,09,15.80
2013,09,12,05,10,15.80
2013,09,12,05,11,15.80
2013,09,12,05,12,15.80
2013,09,12,05,13,15.80
2013,09,12,05,14,15.80
2013,09,12,05,15,15.80
2013,09,12,05,16,15.80
2013,09,12,05,17,15.80
2013,09,12,05,18,15.80
2013,09,12,05,19,15.80
2013,09,12,05,20,15.80
2013,09,12,05,21,15.80
2013,09,12,05,22,15.80
2013,09,12,05,23,15.80
2013,09,12,05,24,15.80
2013,09,12,05,25,15.80
2013,09,12,05,26,15.80
2013,09,12,05,27,15.80
2013,09,12,05,28,15.80
2013,09,12,05,29,15.80
2013,09,12,05,30,15.80
2013,09,12,05,31,15.80
2013,09,12,05,32,15.80
2013,09,12,05,33,15.80
2013,09,12,05,34,15.70
2013,09,12,05,35,15.70
2013,09,12,05,36,15.70
2013,09,12,05,37,15.70
2013,09,12,05,38,15.60
2013,09,12,05,39,15.60
2013,09,12,05,40,15.60
2013,09,12,05,41,15.60
2013,09,12,05,42,15.60
2013,09,12,05,43,15.60
2013,09,12,05,44,15.60
2013,09,12,05,45,15.60
2013,09,12,05,46,15.60
2013,09,12,05,47,15.60
2013,09,12,05,48,15.60
2013,09,12,05,49,15.50
2013,09,12,05,50,15.50
2013,09,12,05,51,15.50
2013,09,12,05,52,15.50
2013,09,12,05,53,15.50
2013,09,12,05,54,15.50
2013,09,12,05,55,15.50
2013,09,12,05,56,15.50
2013,09,12,05,57,15.50
2013,09,12,05,58,15.50
2013,09,12,05,59,15.50
2013,09,12,06,00,15.50
2013,09,12,06,01,15.50
2013,09,12,06,02,15.50
2013,09,12,06,03,15.50
2013,09,12,06,04,15.50
2013,09,12,06,05,15.50
2013,09,12,06,06,15.50
2013,09,12,06,07,15.50
2013,09,12,06,08,15.50
2013,09,12,06,09,15.50
2013,09,12,06,10,15.50
2013,09,12,06,11,15.50
2013,09,12,06,12,15.50
2013,09,12,06,13,15.50
2013,09,12,06,14,15.50
2013,09,12,06,15,15.50
2013,09,12,06,16,15.50
2013,09,12,06,17,15.40
2013,09,12,06,18,15.50
2013,09,12,06,19,15.40
2013,09,12,06,20,15.40
2013,09,12,06,21,15.40
2013,09,12,06,22,15.40
2013,09,12,06,23,15.40
2013,09,12,06,24,15.40
2013,09,12,06,25,15.40
2013,09,12,06,26,15.40
2013,09,12,06,27,15.40
2013,09,12,06,28,15.40
2013,09,12,06,29,15.40
2013,09,12,06,30,15.40
2013,09,12,06,31,15.40
2013,09,12,06,32,15.40
2013,09,12,06,33,15.40
2013,09,12,06,34,15.40
2013,09,12,06,35,15.40
2013,09,12,06,36,15.40
2013,09,12,06,37,15.40
2013,09,12,06,38,15.30
2013,09,12,06,39,15.30
2013,09,12,06,40,15.30
2013,09,12,06,41,15.30
2013,09,12,06,42,15.30
2013,09,12,06,43,15.30
2013,09,12,06,44,15.20
2013,09,12,06,45,15.20
2013,09,12,06,46,15.20
2013,09,12,06,47,15.30
2013,09,12,06,48,15.30
2013,09,12,06,49,15.30
2013,09,12,06,50,15.30
2013,09,12,06,51,15.30
2013,09,12,06,52,15.30
2013,09,12,06,53,15.30
2013,09,12,06,54,15.30
2013,09,12,06,55,15.30
2013,09,12,06,56,15.40
2013,09,12,06,57,15.40
2013,09,12,06,58,15.50
2013,09,12,06,59,15.50
2013,09,12,07,00,15.50
2013,09,12,07,01,15.50
2013,09,12,07,02,15.60
2013,09,12,07,03,15.60
2013,09,12,07,04,15.60
2013,09,12,07,05,15.60
2013,09,12,07,06,15.60
2013,09,12,07,07,15.70
2013,09,12,07,08,15.70
2013,09,12,07,09,15.70
2013,09,12,07,10,15.80
2013,09,12,07,11,15.80
2013,09,12,07,12,15.90
2013,09,12,07,13,15.90
2013,09,12,07,14,15.90
2013,09,12,07,15,15.90
2013,09,12,07,16,15.90
2013,09,12,07,17,15.90
2013,09,12,07,18,15.90
2013,09,12,07,19,15.90
2013,09,12,07,20,15.90
2013,09,12,07,21,15.90
2013,09,12,07,22,15.90
2013,09,12,07,23,15.90
2013,09,12,07,24,15.90
2013,09,12,07,25,15.90
2013,09,12,07,26,15.90
2013,09,12,07,27,15.90
2013,09,12,07,28,15.90
2013,09,12,07,29,15.90
2013,09,12,07,30,15.90
2013,09,12,07,31,15.90
2013,09,12,07,32,15.90
2013,09,12,07,33,15.90
2013,09,12,07,34,15.80
2013,09,12,07,35,15.80
2013,09,12,07,36,15.80
2013,09,12,07,37,15.80
2013,09,12,07,38,15.80
2013,09,12,07,39,15.80
2013,09,12,07,40,15.90
2013,09,12,07,41,15.90
2013,09,12,07,42,15.90
2013,09,12,07,43,15.90
2013,09,12,07,44,15.90
2013,09,12,07,45,15.90
2013,09,12,07,46,16.00
2013,09,12,07,47,16.00
2013,09,12,07,48,16.00
2013,09,12,07,49,16.10
2013,09,12,07,50,16.10
2013,09,12,07,51,16.20
2013,09,12,07,52,16.20
2013,09,12,07,53,16.30
2013,09,12,07,54,16.30
2013,09,12,07,55,16.40
2013,09,12,07,56,16.40
2013,09,12,07,57,16.50
2013,09,12,07,58,16.50
2013,09,12,07,59,16.60
2013,09,12,08,00,16.70
2013,09,12,08,01,16.70
2013,09,12,08,02,16.80
2013,09,12,08,03,16.90
2013,09,12,08,04,16.90
2013,09,12,08,05,17.00
2013,09,12,08,06,17.10
2013,09,12,08,07,17.10
2013,09,12,08,08,17.20
2013,09,12,08,09,17.30
2013,09,12,08,10,17.30
2013,09,12,08,11,17.40
2013,09,12,08,12,17.40
2013,09,12,08,13,17.50
2013,09,12,08,14,17.60
2013,09,12,08,15,17.60
2013,09,12,08,16,17.70
2013,09,12,08,17,17.70
2013,09,12,08,18,17.80
2013,09,12,08,19,17.80
2013,09,12,08,20,17.90
2013,09,12,08,21,17.90
2013,09,12,08,22,18.00
2013,09,12,08,23,18.00
2013,09,12,08,24,18.00
2013,09,12,08,25,18.00
2013,09,12,08,26,18.00
2013,09,12,08,27,18.10
2013,09,12,08,28,18.10
2013,09,12,08,29,18.10
2013,09,12,08,30,18.10
2013,09,12,08,31,18.20
2013,09,12,08,32,18.20
2013,09,12,08,33,18.20
2013,09,12,08,34,18.30
2013,09,12,08,35,18.30
2013,09,12,08,36,18.30
2013,09,12,08,37,18.40
2013,09,12,08,38,18.40
2013,09,12,08,39,18.40
2013,09,12,08,40,18.50
2013,09,12,08,41,18.50
2013,09,12,08,42,18.60
2013,09,12,08,43,18.60
2013,09,12,08,44,18.70
2013,09,12,08,45,18.70
2013,09,12,08,46,18.70
2013,09,12,08,47,18.80
2013,09,12,08,48,18.80
2013,09,12,08,49,18.80
2013,09,12,08,50,18.80
2013,09,12,08,51,18.80
2013,09,12,08,52,18.80
2013,09,12,08,53,18.80
2013,09,12,08,54,18.80
2013,09,12,08,55,18.70
2013,09,12,08,56,18.70
2013,09,12,08,57,18.70
2013,09,12,08,58,18.80
2013,09,12,08,59,18.80
2013,09,12,09,00,18.80
2013,09,12,09,01,18.80
2013,09,12,09,02,18.80
2013,09,12,09,03,18.80
2013,09,12,09,04,18.80
2013,09,12,09,05,18.80
2013,09,12,09,06,18.80
2013,09,12,09,07,18.70
2013,09,12,09,08,18.70
2013,09,12,09,09,18.70
2013,09,12,09,10,18.70
2013,09,12,09,11,18.70
2013,09,12,09,12,18.60
2013,09,12,09,13,18.60
2013,09,12,09,14,18.60
2013,09,12,09,15,18.60
2013,09,12,09,16,18.60
2013,09,12,09,17,18.60
2013,09,12,09,18,18.60
2013,09,12,09,19,18.50
2013,09,12,09,20,18.50
2013,09,12,09,21,18.50
2013,09,12,09,22,18.50
2013,09,12,09,23,18.50
2013,09,12,09,24,18.50
2013,09,12,09,25,18.50
2013,09,12,09,26,18.40
2013,09,12,09,27,18.40
2013,09,12,09,28,18.40
2013,09,12,09,29,18.40
2013,09,12,09,30,18.30
2013,09,12,09,31,18.30
2013,09,12,09,32,18.30
2013,09,12,09,33,18.30
2013,09,12,09,34,18.30
2013,09,12,09,35,18.20
2013,09,12,09,36,18.20
2013,09,12,09,37,18.20
2013,09,12,09,38,18.30
2013,09,12,09,39,18.30
2013,09,12,09,40,18.30
2013,09,12,09,41,18.30
2013,09,12,09,42,18.30
2013,09,12,09,43,18.40
2013,09,12,09,44,18.40
2013,09,12,09,45,18.50
2013,09,12,09,46,18.50
2013,09,12,09,47,18.60
2013,09,12,09,48,18.60
2013,09,12,09,49,18.70
2013,09,12,09,50,18.70
2013,09,12,09,51,18.80
2013,09,12,09,52,18.80
2013,09,12,09,53,18.80
2013,09,12,09,54,18.80
2013,09,12,09,55,18.90
2013,09,12,09,56,18.90
2013,09,12,09,57,18.90
2013,09,12,09,58,19.00
2013,09,12,09,59,19.00
2013,09,12,10,00,19.10
2013,09,12,10,01,19.10
2013,09,12,10,02,19.20
2013,09,12,10,03,19.20
2013,09,12,10,04,19.20
2013,09,12,10,05,19.30
2013,09,12,10,06,19.30
2013,09,12,10,07,19.30
2013,09,12,10,08,19.40
2013,09,12,10,09,19.40
2013,09,12,10,10,19.50
2013,09,12,10,11,19.60
2013,09,12,10,12,19.60
2013,09,12,10,13,19.70
2013,09,12,10,14,19.70
2013,09,12,10,15,19.70
2013,09,12,10,16,19.70
2013,09,12,10,17,19.70
2013,09,12,10,18,19.60
2013,09,12,10,19,19.60
2013,09,12,10,20,19.60
2013,09,12,10,21,19.60
2013,09,12,10,22,19.60
2013,09,12,10,23,19.60
2013,09,12,10,24,19.60
2013,09,12,10,25,19.60
2013,09,12,10,26,19.60
2013,09,12,10,27,19.60
2013,09,12,10,28,19.60
2013,09,12,10,29,19.60
2013,09,12,10,30,19.60
2013,09,12,10,31,19.60
2013,09,12,10,32,19.60
2013,09,12,10,33,19.60
2013,09,12,10,34,19.60
2013,09,12,10,35,19.60
2013,09,12,10,36,19.70
2013,09,12,10,37,19.70
2013,09,12,10,38,19.80
2013,09,12,10,39,19.80
2013,09,12,10,40,19.90
2013,09,12,10,41,20.00
2013,09,12,10,42,20.00
2013,09,12,10,43,20.10
2013,09,12,10,44,20.20
2013,09,12,10,45,20.30
2013,09,12,10,46,20.30
2013,09,12,10,47,20.40
2013,09,12,10,48,20.50
2013,09,12,10,49,20.60
2013,09,12,10,50,20.60
2013,09,12,10,51,20.70
2013,09,12,10,52,20.70
2013,09,12,10,53,20.80
2013,09,12,10,54,20.80
2013,09,12,10,55,20.80
2013,09,12,10,56,20.80
2013,09,12,10,57,20.80
2013,09,12,10,58,20.80
2013,09,12,10,59,20.80
2013,09,12,11,00,20.80
2013,09,12,11,01,20.90
2013,09,12,11,02,20.90
2013,09,12,11,03,20.90
2013,09,12,11,04,20.90
2013,09,12,11,05,20.90
2013,09,12,11,06,20.80
2013,09,12,11,07,20.80
2013,09,12,11,08,20.80
2013,09,12,11,09,20.70
2013,09,12,11,10,20.60
2013,09,12,11,11,20.60
2013,09,12,11,12,20.50
2013,09,12,11,13,20.40
2013,09,12,11,14,20.30
2013,09,12,11,15,20.30
2013,09,12,11,16,20.20
2013,09,12,11,17,20.10
2013,09,12,11,18,20.10
2013,09,12,11,19,20.10
2013,09,12,11,20,20.10
2013,09,12,11,21,20.00
2013,09,12,11,22,20.00
2013,09,12,11,23,20.00
2013,09,12,11,24,19.90
2013,09,12,11,25,19.90
2013,09,12,11,26,19.80
2013,09,12,11,27,19.70
2013,09,12,11,28,19.60
2013,09,12,11,29,19.50
2013,09,12,11,30,19.50
2013,09,12,11,31,19.40
2013,09,12,11,32,19.40
2013,09,12,11,33,19.40
2013,09,12,11,34,19.40
2013,09,12,11,35,19.40
2013,09,12,11,36,19.40
2013,09,12,11,37,19.30
2013,09,12,11,38,19.30
2013,09,12,11,39,19.20
2013,09,12,11,40,19.20
2013,09,12,11,41,19.20
2013,09,12,11,42,19.20
2013,09,12,11,43,19.30
2013,09,12,11,44,19.30
2013,09,12,11,45,19.40
2013,09,12,11,46,19.40
2013,09,12,11,47,19.40
2013,09,12,11,48,19.40
2013,09,12,11,49,19.50
2013,09,12,11,50,19.50
2013,09,12,11,51,19.50
2013,09,12,11,52,19.60
2013,09,12,11,53,19.70
2013,09,12,11,54,19.70
2013,09,12,11,55,19.80
2013,09,12,11,56,19.90
2013,09,12,11,57,19.90
2013,09,12,11,58,19.90
2013,09,12,11,59,20.00
2013,09,12,12,00,20.00
2013,09,12,12,01,20.00
2013,09,12,12,02,20.10
2013,09,12,12,03,20.10
2013,09,12,12,04,20.20
2013,09,12,12,05,20.20
2013,09,12,12,06,20.30
2013,09,12,12,07,20.30
2013,09,12,12,08,20.30
2013,09,12,12,09,20.30
2013,09,12,12,10,20.20
2013,09,12,12,11,20.20
2013,09,12,12,12,20.20
2013,09,12,12,13,20.20
2013,09,12,12,14,20.30
2013,09,12,12,15,20.30
2013,09,12,12,16,20.30
2013,09,12,12,17,20.40
2013,09,12,12,18,20.40
2013,09,12,12,19,20.50
2013,09,12,12,20,20.50
2013,09,12,12,21,20.60
2013,09,12,12,22,20.60
2013,09,12,12,23,20.60
2013,09,12,12,24,20.60
2013,09,12,12,25,20.60
2013,09,12,12,26,20.70
2013,09,12,12,27,20.70
2013,09,12,12,28,20.70
2013,09,12,12,29,20.80
2013,09,12,12,30,20.80
2013,09,12,12,31,20.90
2013,09,12,12,32,20.90
2013,09,12,12,33,21.00
2013,09,12,12,34,21.00
2013,09,12,12,35,21.10
2013,09,12,12,36,21.20
2013,09,12,12,37,21.30
2013,09,12,12,38,21.30
2013,09,12,12,39,21.40
2013,09,12,12,40,21.40
2013,09,12,12,41,21.40
2013,09,12,12,42,21.50
2013,09,12,12,43,21.50
2013,09,12,12,44,21.60
2013,09,12,12,45,21.60
2013,09,12,12,46,21.70
2013,09,12,12,47,21.70
2013,09,12,12,48,21.80
2013,09,12,12,49,21.90
2013,09,12,12,50,22.00
2013,09,12,12,51,22.10
2013,09,12,12,52,22.20
2013,09,12,12,53,22.30
2013,09,12,12,54,22.30
2013,09,12,12,55,22.40
2013,09,12,12,56,22.50
2013,09,12,12,57,22.60
2013,09,12,12,58,22.70
2013,09,12,12,59,22.70
2013,09,12,13,00,22.80
2013,09,12,13,01,22.80
2013,09,12,13,02,22.90
2013,09,12,13,03,23.00
2013,09,12,13,04,23.00
2013,09,12,13,05,23.10
2013,09,12,13,06,23.20
2013,09,12,13,07,23.20
2013,09,12,13,08,23.20
2013,09,12,13,09,23.20
2013,09,12,13,10,23.20
2013,09,12,13,11,23.20
2013,09,12,13,12,23.20
2013,09,12,13,13,23.20
2013,09,12,13,14,23.20
2013,09,12,13,15,23.20
2013,09,12,13,16,23.30
2013,09,12,13,17,23.30
2013,09,12,13,18,23.40
2013,09,12,13,19,23.40
2013,09,12,13,20,23.50
2013,09,12,13,21,23.50
2013,09,12,13,22,23.60
2013,09,12,13,23,23.60
2013,09,12,13,24,23.60
2013,09,12,13,25,23.60
2013,09,12,13,26,23.70
2013,09,12,13,27,23.70
2013,09,12,13,28,23.70
2013,09,12,13,29,23.70
2013,09,12,13,30,23.70
2013,09,12,13,31,23.80
2013,09,12,13,32,23.80
2013,09,12,13,33,23.80
2013,09,12,13,34,23.80
2013,09,12,13,35,23.90
2013,09,12,13,36,23.90
2013,09,12,13,37,23.90
2013,09,12,13,38,23.90
2013,09,12,13,39,24.00
2013,09,12,13,40,24.00
2013,09,12,13,41,24.00
2013,09,12,13,42,24.00
2013,09,12,13,43,24.00
2013,09,12,13,44,24.00
2013,09,12,13,45,24.10
2013,09,12,13,46,24.10
2013,09,12,13,47,24.20
2013,09,12,13,48,24.30
2013,09,12,13,49,24.30
2013,09,12,13,50,24.30
2013,09,12,13,51,24.20
2013,09,12,13,52,24.20
2013,09,12,13,53,24.10
2013,09,12,13,54,24.10
2013,09,12,13,55,24.10
2013,09,12,13,56,24.20
2013,09,12,13,57,24.10
2013,09,12,13,58,24.10
2013,09,12,13,59,24.00
2013,09,12,14,00,24.00
2013,09,12,14,01,23.90
2013,09,12,14,02,23.90
2013,09,12,14,03,23.90
2013,09,12,14,04,23.80
2013,09,12,14,05,23.80
2013,09,12,14,06,23.80
2013,09,12,14,07,23.80
2013,09,12,14,08,23.80
2013,09,12,14,09,23.80
2013,09,12,14,10,23.80
2013,09,12,14,11,23.80
2013,09,12,14,12,23.80
2013,09,12,14,13,23.80
2013,09,12,14,14,23.90
2013,09,12,14,15,23.90
2013,09,12,14,16,23.90
2013,09,12,14,17,23.80
2013,09,12,14,18,23.80
2013,09,12,14,19,23.80
2013,09,12,14,20,23.90
2013,09,12,14,21,23.90
2013,09,12,14,22,23.90
2013,09,12,14,23,23.90
2013,09,12,14,24,23.90
2013,09,12,14,25,23.90
2013,09,12,14,26,24.00
2013,09,12,14,27,24.00
2013,09,12,14,28,24.10
2013,09,12,14,29,24.10
2013,09,12,14,30,24.20
2013,09,12,14,31,24.20
2013,09,12,14,32,24.20
2013,09,12,14,33,24.20
2013,09,12,14,34,24.20
2013,09,12,14,35,24.10
2013,09,12,14,36,24.10
2013,09,12,14,37,24.10
2013,09,12,14,38,24.10
2013,09,12,14,39,24.10
2013,09,12,14,40,24.20
2013,09,12,14,41,24.20
2013,09,12,14,42,24.30
2013,09,12,14,43,24.30
2013,09,12,14,44,24.30
2013,09,12,14,45,24.30
2013,09,12,14,46,24.30
2013,09,12,14,47,24.40
2013,09,12,14,48,24.40
2013,09,12,14,49,24.40
2013,09,12,14,50,24.40
2013,09,12,14,51,24.40
2013,09,12,14,52,24.40
2013,09,12,14,53,24.40
2013,09,12,14,54,24.40
2013,09,12,14,55,24.30
2013,09,12,14,56,24.30
2013,09,12,14,57,24.20
2013,09,12,14,58,24.20
2013,09,12,14,59,24.10
2013,09,12,15,00,24.10
2013,09,12,15,01,24.00
2013,09,12,15,02,24.00
2013,09,12,15,03,23.90
2013,09,12,15,04,23.80
2013,09,12,15,05,23.80
2013,09,12,15,06,23.80
2013,09,12,15,07,23.80
2013,09,12,15,08,23.90
2013,09,12,15,09,23.90
2013,09,12,15,10,24.00
2013,09,12,15,11,24.00
2013,09,12,15,12,24.10
2013,09,12,15,13,24.10
2013,09,12,15,14,24.20
2013,09,12,15,15,24.20
2013,09,12,15,16,24.20
2013,09,12,15,17,24.20
2013,09,12,15,18,24.20
2013,09,12,15,19,24.10
2013,09,12,15,20,24.10
2013,09,12,15,21,24.10
2013,09,12,15,22,24.10
2013,09,12,15,23,24.00
2013,09,12,15,24,24.00
2013,09,12,15,25,23.90
2013,09,12,15,26,24.00
2013,09,12,15,27,24.00
2013,09,12,15,28,24.10
2013,09,12,15,29,24.20
2013,09,12,15,30,24.20
2013,09,12,15,31,24.30
2013,09,12,15,32,24.40
2013,09,12,15,33,24.50
2013,09,12,15,34,24.60
2013,09,12,15,35,24.60
2013,09,12,15,36,24.70
2013,09,12,15,37,24.70
2013,09,12,15,38,24.80
2013,09,12,15,39,24.80
2013,09,12,15,40,24.70
2013,09,12,15,41,24.70
2013,09,12,15,42,24.70
2013,09,12,15,43,24.70
2013,09,12,15,44,24.80
2013,09,12,15,45,24.80
2013,09,12,15,46,24.80
2013,09,12,15,47,24.80
2013,09,12,15,48,24.80
2013,09,12,15,49,24.70
2013,09,12,15,50,24.70
2013,09,12,15,51,24.60
2013,09,12,15,52,24.50
2013,09,12,15,53,24.40
2013,09,12,15,54,24.40
2013,09,12,15,55,24.30
2013,09,12,15,56,24.30
2013,09,12,15,57,24.10
2013,09,12,15,58,24.10
2013,09,12,15,59,24.00
2013,09,12,16,00,24.00
2013,09,12,16,01,24.00
2013,09,12,16,02,24.00
2013,09,12,16,03,24.10
2013,09,12,16,04,24.10
2013,09,12,16,05,24.20
2013,09,12,16,06,24.20
2013,09,12,16,07,24.20
2013,09,12,16,08,24.30
2013,09,12,16,09,24.30
2013,09,12,16,10,24.40
2013,09,12,16,11,24.50
2013,09,12,16,12,24.50
2013,09,12,16,13,24.60
2013,09,12,16,14,24.70
2013,09,12,16,15,24.80
2013,09,12,16,16,24.80
2013,09,12,16,17,24.80
2013,09,12,16,18,24.80
2013,09,12,16,19,24.90
2013,09,12,16,20,24.90
2013,09,12,16,21,24.90
2013,09,12,16,22,24.90
2013,09,12,16,23,24.90
2013,09,12,16,24,24.90
2013,09,12,16,25,24.90
2013,09,12,16,26,24.90
2013,09,12,16,27,24.90
2013,09,12,16,28,24.90
2013,09,12,16,29,24.80
2013,09,12,16,30,24.80
2013,09,12,16,31,24.80
2013,09,12,16,32,24.90
2013,09,12,16,33,24.90
2013,09,12,16,34,25.00
2013,09,12,16,35,25.00
2013,09,12,16,36,25.10
2013,09,12,16,37,25.10
2013,09,12,16,38,25.10
2013,09,12,16,39,25.00
2013,09,12,16,40,24.90
2013,09,12,16,41,24.80
2013,09,12,16,42,24.80
2013,09,12,16,43,24.80
2013,09,12,16,44,24.70
2013,09,12,16,45,24.70
2013,09,12,16,46,24.70
2013,09,12,16,47,24.60
2013,09,12,16,48,24.50
2013,09,12,16,49,24.40
2013,09,12,16,50,24.30
2013,09,12,16,51,24.20
2013,09,12,16,52,24.20
2013,09,12,16,53,24.10
2013,09,12,16,54,24.10
2013,09,12,16,55,24.00
2013,09,12,16,56,24.00
2013,09,12,16,57,23.90
2013,09,12,16,58,23.90
2013,09,12,16,59,23.80
2013,09,12,17,00,23.80
2013,09,12,17,01,23.80
2013,09,12,17,02,23.90
2013,09,12,17,03,23.90
2013,09,12,17,04,23.80
2013,09,12,17,05,23.80
2013,09,12,17,06,23.80
2013,09,12,17,07,23.80
2013,09,12,17,08,23.80
2013,09,12,17,09,23.80
2013,09,12,17,10,23.90
2013,09,12,17,11,23.90
2013,09,12,17,12,23.90
2013,09,12,17,13,23.90
2013,09,12,17,14,23.90
2013,09,12,17,15,24.00
2013,09,12,17,16,24.00
2013,09,12,17,17,23.90
2013,09,12,17,18,23.90
2013,09,12,17,19,23.90